SCP
0 0 0 0 0 0 0 0 0 1 1 1 2 2 2 2 2 2 2 3 3 4 4 4 5 5 5 4 3 5 9 12 11 8 5 4 4 3 2 2 1 1 1 1
0 0 0 1 0 0 0 0 0 1 1 2 2 2 2 2 2 2 2 3 4 4 5 5 5 5 5 4 4 5 7 9 10 8 5 4 3 3 2 2 2 2 2 1
0 0 1 1 1 1 0 1 1 1 2 2 3 2 2 2 2 3 3 3 4 5 5 5 5 6 6 5 4 4 6 8 8 6 4 3 3 2 2 2 2 2 2 2
0 0 0 1 1 1 1 1 1 2 2 3 3 3 3 3 3 3 3 4 5 5 5 5 6 7 7 7 5 4 5 8 8 5 4 3 2 2 2 2 2 2 2 2
0 0 0 1 1 1 1 1 2 2 2 2 3 3 3 3 4 4 4 4 5 6 6 7 7 7 7 6 4 4 5 7 6 4 3 3 2 2 2 2 1 1 1 1
0 0 0 1 1 1 1 1 2 2 2 2 2 3 3 4 5 5 5 5 7 8 8 8 8 7 5 4 4 4 4 5 4 3 3 3 3 3 3 2 2 2 2 1
0 0 1 1 1 1 1 2 2 3 3 3 3 4 4 5 5 6 6 7 9 10 10 9 8 6 5 5 5 4 4 3 3 3 3 3 4 4 4 3 3 3 3 2
1 1 1 2 2 2 2 3 3 4 4 4 5 5 4 5 5 5 6 8 10 11 11 10 8 6 6 6 6 5 5 4 4 3 4 4 5 5 5 5 4 4 4 3
2 2 2 2 3 3 3 4 4 4 5 5 5 5 5 5 5 6 7 8 9 9 10 9 8 7 7 7 6 6 6 5 4 4 4 5 6 5 5 5 5 5 5 4
3 3 3 3 3 4 4 4 5 5 5 5 5 6 6 6 7 7 8 8 8 8 9 9 8 7 7 6 5 5 5 4 4 4 5 6 6 5 4 5 5 6 6 6
4 4 4 3 4 4 4 5 5 5 5 6 6 6 7 8 8 8 9 8 8 9 9 9 8 8 6 5 4 4 3 3 4 5 5 5 4 4 3 4 4 5 6 6
5 4 4 4 4 4 4 5 6 6 6 6 6 7 7 8 8 8 8 7 7 7 7 7 8 7 6 4 4 4 4 4 4 5 5 4 4 3 3 3 2 2 3 4
5 4 4 4 3 3 3 4 5 6 6 6 6 5 5 5 5 5 5 5 5 5 6 6 7 6 6 5 4 5 5 5 5 5 5 5 5 5 5 4 2 1 1 1
5 5 4 3 2 3 3 4 4 4 4 4 4 3 3 3 3 3 3 3 3 3 4 6 6 7 6 5 4 5 6 6 5 5 5 6 7 7 7 6 5 3 1 0
5 4 3 3 2 2 3 3 3 3 3 3 3 2 2 3 3 2 2 2 2 2 3 5 6 6 5 4 4 4 4 5 4 4 4 5 5 6 6 6 5 4 2 1
4 3 3 2 2 3 3 3 3 3 3 2 2 2 2 2 2 2 2 1 1 2 3 4 4 4 4 3 3 3 3 2 2 2 2 2 2 3 3 3 3 2 1 1
3 3 3 3 4 5 5 5 4 3 3 2 2 2 2 2 2 2 1 1 1 1 2 2 2 2 2 2 2 2 2 1 1 1 1 1 1 1 1 2 1 1 1 0
3 3 4 4 5 5 6 6 5 4 3 2 2 2 1 1 1 1 1 1 1 1 1 1 1 1 2 2 2 2 1 1 1 1 1 0 0 0 0 1 1 1 1 0
3 3 3 4 4 4 5 5 4 3 2 2 2 1 1 1 1 1 1 1 1 1 1 1 1 1 1 1 1 1 1 1 1 1 0 0 0 0 0 0 0 0 0 0
2 2 2 2 2 2 2 2 2 2 2 1 1 1 0 0 0 0 1 1 1 1 1 1 1 1 1 1 1 1 1 0 0 0 0 0 0 0 0 0 0 0 0 0
1 1 1 1 1 1 1 1 1 1 1 1 1 0 0 0 0 0 0 0 0 1 1 1 1 1 1 1 0 0 0 0 0 0 0 0 0 0 0 0 0 0 0 0
1 1 1 1 1 1 1 1 1 1 1 0 0 0 0 0 0 0 0 0 0 1 1 1 1 0 0 0 0 0 0 0 0 0 0 0 0 0 0 0 0 0 0 0
1 1 1 1 1 1 1 1 1 0 0 0 0 0 0 0 0 0 0 0 0 0 0 0 0 0 0 0 0 0 0 0 0 0 0 0 0 0 0 0 0 0 0 0
1 1 1 1 1 1 1 1 0 0 0 0 0 0 0 0 0 0 0 0 0 0 0 0 0 0 0 0 0 0 1 1 0 0 0 0 0 0 0 0 0 0 0 0
0 1 1 1 1 1 1 0 0 0 0 0 0 0 0 0 0 0 0 0 0 0 0 0 0 0 0 0 0 0 0 0 0 0 0 0 0 0 0 0 0 0 0 0
0 0 0 0 0 0 0 0 0 0 0 0 0 0 0 0 0 0 0 0 0 0 0 0 0 0 0 0 0 0 0 0 0 0 0 0 0 0 0 0 0 0 0 0
0 0 0 0 0 0 0 0 0 0 0 0 0 0 0 0 0 1 0 0 0 0 0 0 0 0 0 0 0 0 0 0 0 0 0 0 0 0 0 0 0 0 0 0
Wind_Speed
6 2 8 11 12 12 12 10 8 5 5 2 2 3 4 4 6 7 7 7 7 7 6 6 6 5 5 4 4 4 4 4 3 3 3 3 2 2 2 2 1 1 1 1
9 7 7 9 10 12 11 9 8 6 3 1 2 3 4 5 5 6 6 6 6 7 7 6 6 5 5 4 4 4 4 3 3 3 3 3 3 2 2 2 2 2 1 1
11 10 9 12 11 11 9 7 7 6 2 2 2 3 3 4 4 5 4 5 6 6 6 5 5 5 5 5 4 4 3 3 3 3 3 3 3 3 3 3 3 3 2 2
9 9 14 5 4 6 7 5 4 2 1 1 2 3 4 2 3 4 4 4 5 5 6 5 5 5 5 5 5 4 4 3 3 3 3 3 3 3 3 2 2 2 2 3
9 12 10 6 6 7 7 5 3 3 2 3 4 5 6 4 3 3 3 4 4 5 6 6 6 6 5 5 4 4 4 3 3 3 3 4 3 4 3 3 2 2 2 3
9 12 12 8 8 4 6 6 4 4 4 4 4 4 5 5 4 4 4 4 4 5 6 6 5 6 5 5 4 3 3 3 3 3 3 3 3 3 3 3 3 2 3 3
11 10 6 6 8 7 9 4 5 4 4 3 2 5 7 5 5 5 5 5 5 6 6 5 5 5 5 4 3 2 2 2 3 3 3 3 3 3 3 3 3 3 3 3
11 11 6 7 8 5 4 6 5 5 5 5 7 7 7 6 6 5 5 6 6 5 6 5 5 4 4 3 3 3 3 2 2 3 3 3 4 4 4 4 4 3 3 2
2 1 6 4 3 5 4 6 6 5 6 7 8 7 7 6 6 6 6 6 5 6 6 5 4 3 3 3 3 3 3 3 2 2 2 3 3 4 4 3 3 3 3 3
4 6 6 5 5 5 5 6 6 6 7 7 8 7 7 6 5 5 6 5 5 5 5 5 4 3 3 3 3 3 3 2 2 2 3 3 3 2 2 2 2 2 2 2
5 7 7 6 5 6 7 7 7 7 7 7 8 7 6 5 5 5 5 4 5 4 5 4 4 3 3 3 3 2 2 2 2 2 3 3 3 2 2 2 1 1 2 2
3 6 5 7 6 7 8 8 7 7 7 7 6 7 6 5 5 4 4 4 4 4 4 4 3 3 2 2 2 2 2 2 2 2 2 3 4 4 7 5 6 5 5 3
4 5 7 8 7 8 8 8 7 7 7 6 6 6 5 5 4 4 4 4 4 3 3 3 3 3 2 2 2 1 1 1 2 2 2 2 2 3 3 4 5 5 4 4
6 8 9 8 8 7 8 8 7 7 6 6 5 5 4 4 4 4 4 3 3 3 3 3 3 3 2 2 2 2 2 2 2 2 2 2 2 2 2 3 3 3 4 4
5 5 8 9 8 8 7 6 6 6 6 5 4 4 4 3 4 3 3 3 3 3 3 3 3 3 2 2 2 2 2 2 2 2 2 2 2 2 2 3 3 3 4 4
7 8 8 8 7 6 6 5 5 4 4 4 3 3 3 3 3 3 3 2 2 3 3 2 2 2 2 2 2 2 3 3 2 2 3 3 2 2 3 3 3 3 3 3
7 7 7 6 6 5 4 4 3 3 3 3 3 2 2 3 3 3 3 2 2 2 2 2 2 2 1 2 1 2 3 4 3 2 3 3 2 2 2 2 2 3 3 3
4 4 5 5 4 4 4 3 3 3 2 2 2 2 2 2 2 2 2 2 2 2 2 2 2 1 1 2 1 1 2 3 2 3 3 3 2 2 2 2 2 2 3 4
4 5 5 5 4 4 4 3 3 3 2 2 1 1 1 2 2 2 2 2 1 1 2 2 1 1 2 2 1 2 2 3 3 3 3 3 2 2 2 2 2 2 3 3
5 5 5 5 4 3 3 3 3 2 2 1 1 1 2 2 2 2 1 1 1 2 1 1 1 1 2 2 1 2 3 3 3 3 3 2 2 2 2 2 3 2 2 2
4 4 4 4 3 3 3 3 2 2 2 1 1 2 2 2 2 1 1 1 2 2 1 1 1 1 1 1 2 2 2 3 3 3 3 2 2 2 2 2 2 2 2 1
4 3 3 3 3 3 3 2 2 2 1 1 1 2 3 3 3 2 2 2 2 1 1 1 1 3 2 1 1 2 2 3 2 2 2 1 2 2 1 1 1 2 2 1
3 3 3 3 3 3 2 2 2 2 2 2 2 2 2 2 1 2 2 2 2 1 0 2 4 4 2 1 1 2 3 2 2 2 2 2 2 1 1 1 1 1 1 1
3 3 3 3 3 3 3 2 2 2 2 2 2 2 2 3 2 2 3 4 2 1 2 5 3 1 2 1 2 3 2 2 2 2 2 2 2 2 2 2 1 1 1 1
3 2 2 3 3 3 3 4 4 4 3 2 3 3 2 2 2 3 4 4 4 2 3 5 3 1 1 2 3 2 2 2 2 2 2 2 2 2 2 2 2 1 2 1
2 2 2 1 1 2 2 3 3 3 3 3 4 3 3 3 3 3 3 4 5 2 2 3 3 2 2 3 3 3 3 3 2 2 2 2 2 2 2 2 2 2 2 2
3 3 2 2 2 2 2 2 2 3 3 3 4 3 3 3 3 4 4 3 3 3 3 2 2 2 2 2 3 3 2 2 2 2 2 2 2 2 2 3 2 2 2 2
Wind_Direction
242 202 196 201 199 202 222 245 252 233 238 227 157 147 144 149 153 155 157 158 159 158 153 153 150 149 148 149 151 153 154 151 152 155 162 165 152 148 139 129 129 124 118 137
211 202 207 210 205 205 218 233 243 248 235 90 112 130 143 151 157 160 161 161 160 159 158 159 159 156 153 151 150 155 157 151 144 145 146 145 142 140 134 127 124 116 103 96
207 196 208 212 207 207 208 218 235 238 220 134 148 143 150 152 155 158 160 157 161 160 160 161 159 156 156 153 148 151 147 139 139 139 133 136 139 139 133 125 117 107 98 89
207 192 221 190 173 211 209 208 224 229 167 143 110 113 108 109 134 144 152 158 158 155 154 155 152 147 145 142 143 144 143 146 153 155 145 139 145 140 137 127 115 103 94 85
214 210 208 165 176 194 201 200 196 197 166 128 125 149 122 89 104 126 136 144 143 145 140 134 133 134 138 141 145 148 151 156 161 170 168 152 147 146 139 133 123 116 104 98
216 226 216 182 151 177 208 194 151 165 154 148 170 205 108 88 90 94 103 114 119 121 121 121 126 134 139 141 144 151 156 162 159 167 165 156 146 143 136 140 137 130 105 96
215 221 209 117 142 180 213 138 122 143 144 158 122 46 91 100 88 87 92 102 111 113 109 110 119 128 131 131 137 137 141 143 144 151 156 150 136 140 143 137 125 115 109 104
217 222 181 130 172 196 75 91 121 126 123 109 97 99 104 99 92 89 91 97 105 107 104 103 110 118 118 114 113 126 140 145 146 149 153 136 139 142 143 141 142 141 137 129
234 118 83 121 101 84 104 115 119 118 112 119 119 113 105 97 90 83 81 84 89 96 97 92 89 96 101 93 102 120 130 133 134 137 128 131 143 143 147 157 165 162 165 164
131 112 117 116 111 112 115 117 119 118 119 121 117 111 104 96 90 85 81 85 90 92 91 84 77 75 78 83 95 109 115 122 129 134 126 124 135 141 147 161 178 177 174 174
136 127 129 115 103 109 114 118 118 114 112 111 114 112 107 100 90 81 77 81 84 91 92 88 82 79 80 90 109 114 124 140 149 144 135 131 114 78 116 81 34 205 174 171
135 145 139 124 119 119 118 114 110 110 108 105 107 110 107 99 92 89 86 87 91 93 92 87 85 82 79 90 111 129 142 150 144 139 141 141 133 107 58 64 64 50 33 26
94 120 111 118 118 115 110 104 100 100 100 99 97 101 104 101 98 95 93 91 87 84 87 88 83 76 61 53 71 96 114 114 111 119 130 136 147 152 135 102 81 69 62 58
124 127 124 122 114 108 104 103 100 93 91 91 93 97 97 100 101 95 87 83 81 84 85 89 90 76 60 62 81 99 104 97 107 117 123 125 131 135 138 141 134 117 95 92
130 129 121 118 114 109 106 107 106 100 94 90 92 94 96 94 92 85 79 77 84 87 78 79 82 77 76 85 90 98 98 99 104 110 114 111 109 112 118 124 117 112 114 114
126 122 122 122 119 119 118 116 109 103 99 95 88 83 87 91 96 93 84 81 81 71 64 64 66 66 83 102 110 109 91 75 94 120 119 119 119 120 121 124 121 115 118 119
137 134 133 132 129 123 114 106 100 99 103 100 93 94 100 105 105 97 83 71 69 75 73 62 55 59 89 116 132 117 114 119 141 131 115 117 118 121 119 117 123 132 130 120
135 129 131 133 129 120 111 106 101 97 91 82 91 112 117 116 105 94 87 81 86 85 70 61 53 55 93 111 116 115 123 129 129 114 114 112 108 109 110 119 129 133 123 131
130 128 125 121 118 119 116 111 104 97 96 95 102 101 103 99 100 100 104 116 123 112 80 73 77 183 117 105 140 151 137 129 122 118 118 125 138 125 127 128 123 115 115 124
121 122 121 118 116 115 119 119 120 117 112 110 113 115 116 113 117 121 127 117 68 54 80 77 176 133 127 128 235 141 130 127 124 123 120 118 121 129 129 118 112 108 102 107
126 127 127 123 115 112 115 120 125 125 122 124 130 132 130 128 125 131 153 115 77 51 81 146 193 125 111 115 216 140 134 130 126 120 126 134 133 119 106 100 103 107 100 96
127 127 129 128 131 122 113 118 124 129 128 132 143 138 139 142 146 141 116 96 108 53 235 158 115 65 34 287 158 124 123 122 117 115 119 116 111 109 104 105 111 114 111 111
121 126 135 142 142 136 139 146 144 141 137 140 143 148 146 137 138 146 134 109 114 91 276 74 67 63 332 251 105 97 95 99 105 117 118 110 106 107 107 107 100 107 124 150
127 136 142 147 152 155 155 147 136 132 139 146 145 144 148 151 149 140 119 116 93 70 72 78 83 69 268 161 104 101 103 110 117 119 113 111 110 105 93 83 86 97 100 89
130 137 146 160 162 156 152 153 150 153 159 142 132 134 143 133 132 119 113 113 114 139 117 116 134 217 228 98 95 93 92 84 83 89 100 94 87 86 80 74 71 63 55 38
140 142 138 157 148 163 164 162 159 157 151 142 135 135 131 128 131 127 128 126 122 121 114 126 137 174 120 106 106 101 99 111 117 110 88 89 86 73 61 51 49 40 41 39
138 138 147 152 152 157 151 145 142 142 141 140 139 136 132 130 133 132 126 123 129 134 123 120 118 106 96 99 102 99 93 87 82 77 84 80 74 72 75 72 53 48 41 43